Time,TemperatureF,DewpointF,PressureIn,WindDirection,WindDirectionDegrees,WindSpeedMPH,WindSpeedGustMPH,Humidity,HourlyPrecipIn,Conditions,Clouds,dailyrainin,SoftwareType,DateUTC
2013-06-28 00:14:00,67.0,65.0,29.40,WNW,300,8.0,8.0,93,0.11,,,0.25,weatherlink.com 1.10,2013-06-28 04:14:00,
2013-06-28 00:30:00,67.2,65.0,29.38,NW,307,3.0,11.0,93,0.09,,,0.26,weatherlink.com 1.10,2013-06-28 04:30:00,
2013-06-28 00:44:00,67.0,65.0,29.36,West,277,5.0,11.0,93,0.06,,,0.27,weatherlink.com 1.10,2013-06-28 04:44:00,
2013-06-28 00:59:00,66.7,65.0,29.35,NW,307,2.0,9.0,93,0.09,,,0.33,weatherlink.com 1.10,2013-06-28 04:59:00,
2013-06-28 01:14:00,66.1,64.0,29.33,West,263,6.0,9.0,94,0.15,,,0.40,weatherlink.com 1.10,2013-06-28 05:14:00,
2013-06-28 01:30:00,65.9,64.0,29.31,WNW,289,3.0,9.0,94,0.18,,,0.44,weatherlink.com 1.10,2013-06-28 05:30:00,
2013-06-28 01:44:00,65.7,64.0,29.30,North,355,3.0,8.0,95,0.24,,,0.52,weatherlink.com 1.10,2013-06-28 05:44:00,
2013-06-28 02:00:00,65.8,64.0,29.27,North,9,3.0,9.0,94,0.21,,,0.54,weatherlink.com 1.10,2013-06-28 06:00:00,
2013-06-28 02:15:00,65.9,64.0,29.26,NW,324,5.0,6.0,94,0.19,,,0.59,weatherlink.com 1.10,2013-06-28 06:15:00,
2013-06-28 02:30:00,65.5,64.0,29.24,East,86,0.0,2.0,95,0.22,,,0.65,weatherlink.com 1.10,2013-06-28 06:30:00,
2013-06-28 02:45:00,65.2,64.0,29.25,West,280,4.0,5.0,95,0.15,,,0.67,weatherlink.com 1.10,2013-06-28 06:45:00,
2013-06-28 03:00:00,65.4,64.0,29.26,NNW,329,7.0,18.0,94,0.14,,,0.68,weatherlink.com 1.10,2013-06-28 07:00:00,
2013-06-28 03:15:00,65.6,63.0,29.29,NW,317,9.0,18.0,92,0.11,,,0.71,weatherlink.com 1.10,2013-06-28 07:15:00,
2013-06-28 03:30:00,65.7,63.0,29.31,WNW,301,7.0,18.0,92,0.07,,,0.72,weatherlink.com 1.10,2013-06-28 07:30:00,
2013-06-28 03:45:00,65.9,64.0,29.33,SW,220,7.0,16.0,92,0.05,,,0.72,weatherlink.com 1.10,2013-06-28 07:45:00,
2013-06-28 04:00:00,65.7,63.0,29.34,WNW,299,7.0,19.0,92,0.05,,,0.73,weatherlink.com 1.10,2013-06-28 08:00:00,
2013-06-28 04:15:00,65.6,63.0,29.34,NW,307,6.0,13.0,92,0.02,,,0.73,weatherlink.com 1.10,2013-06-28 08:15:00,
2013-06-28 04:30:00,65.4,63.0,29.35,WNW,288,5.0,12.0,92,0.01,,,0.73,weatherlink.com 1.10,2013-06-28 08:30:00,
2013-06-28 04:46:00,65.1,63.0,29.35,West,269,7.0,16.0,92,0.01,,,0.73,weatherlink.com 1.10,2013-06-28 08:46:00,
2013-06-28 05:01:00,64.6,62.0,29.36,NW,307,7.0,15.0,92,0.00,,,0.73,weatherlink.com 1.10,2013-06-28 09:01:00,
2013-06-28 05:16:00,64.0,62.0,29.37,NW,322,4.0,11.0,92,0.01,,,0.00,weatherlink.com 1.10,2013-06-28 09:16:00,
2013-06-28 05:31:00,63.7,61.0,29.39,NW,319,8.0,13.0,92,0.01,,,0.00,weatherlink.com 1.10,2013-06-28 09:31:00,
2013-06-28 05:46:00,63.7,61.0,29.39,West,260,4.0,12.0,92,0.01,,,0.00,weatherlink.com 1.10,2013-06-28 09:46:00,
2013-06-28 06:01:00,63.6,61.0,29.39,West,259,5.0,14.0,92,0.01,,,0.00,weatherlink.com 1.10,2013-06-28 10:01:00,
2013-06-28 06:16:00,63.3,61.0,29.41,WNW,299,3.0,9.0,92,0.00,,,0.00,weatherlink.com 1.10,2013-06-28 10:16:00,
2013-06-28 06:31:00,63.4,61.0,29.41,North,355,2.0,10.0,91,0.00,,,0.00,weatherlink.com 1.10,2013-06-28 10:31:00,
2013-06-28 06:48:00,63.5,61.0,29.42,NNW,333,2.0,9.0,91,0.00,,,0.00,weatherlink.com 1.10,2013-06-28 10:48:00,
2013-06-28 07:02:00,63.6,61.0,29.43,NNE,17,3.0,8.0,91,0.00,,,0.00,weatherlink.com 1.10,2013-06-28 11:02:00,
2013-06-28 07:18:00,64.0,61.0,29.43,North,355,4.0,8.0,91,0.00,,,0.00,weatherlink.com 1.10,2013-06-28 11:18:00,
2013-06-28 07:32:00,64.1,62.0,29.43,North,351,3.0,7.0,91,0.00,,,0.00,weatherlink.com 1.10,2013-06-28 11:32:00,
2013-06-28 07:48:00,64.4,62.0,29.43,NNW,333,0.0,6.0,91,0.00,,,0.00,weatherlink.com 1.10,2013-06-28 11:48:00,
2013-06-28 08:02:00,64.8,62.0,29.43,NNW,332,1.0,8.0,90,0.00,,,0.00,weatherlink.com 1.10,2013-06-28 12:02:00,
2013-06-28 08:17:00,65.9,63.0,29.42,NNE,12,0.0,4.0,90,0.00,,,0.00,weatherlink.com 1.10,2013-06-28 12:17:00,
2013-06-28 08:32:00,66.3,63.0,29.42,SW,234,3.0,5.0,88,0.00,,,0.00,weatherlink.com 1.10,2013-06-28 12:32:00,
2013-06-28 08:47:00,67.5,63.0,29.42,North,5,0.0,6.0,86,0.00,,,0.00,weatherlink.com 1.10,2013-06-28 12:47:00,
2013-06-28 09:03:00,67.4,63.0,29.41,NE,42,2.0,7.0,86,0.00,,,0.00,weatherlink.com 1.10,2013-06-28 13:03:00,
2013-06-28 09:18:00,67.4,63.0,29.41,SW,234,3.0,5.0,85,0.00,,,0.00,weatherlink.com 1.10,2013-06-28 13:18:00,
2013-06-28 09:33:00,67.7,63.0,29.41,NW,325,0.0,7.0,86,0.00,,,0.00,weatherlink.com 1.10,2013-06-28 13:33:00,
2013-06-28 09:48:00,68.4,64.0,29.41,South,169,0.0,6.0,86,0.00,,,0.00,weatherlink.com 1.10,2013-06-28 13:48:00,
2013-06-28 10:03:00,68.1,64.0,29.41,West,263,0.0,4.0,85,0.00,,,0.00,weatherlink.com 1.10,2013-06-28 14:03:00,
2013-06-28 10:18:00,67.8,63.0,29.41,WNW,290,0.0,6.0,85,0.00,,,0.00,weatherlink.com 1.10,2013-06-28 14:18:00,
2013-06-28 10:33:00,68.6,64.0,29.41,ESE,123,3.0,6.0,84,0.00,,,0.00,weatherlink.com 1.10,2013-06-28 14:33:00,
2013-06-28 10:48:00,69.3,64.0,29.41,NNW,336,3.0,4.0,82,0.00,,,0.00,weatherlink.com 1.10,2013-06-28 14:48:00,
2013-06-28 11:03:00,69.3,65.0,29.40,SE,142,1.0,5.0,85,0.00,,,0.00,weatherlink.com 1.10,2013-06-28 15:03:00,
2013-06-28 11:18:00,69.7,64.0,29.40,WNW,286,0.0,7.0,82,0.00,,,0.00,weatherlink.com 1.10,2013-06-28 15:18:00,
2013-06-28 11:34:00,70.4,66.0,29.40,WSW,255,2.0,5.0,85,0.00,,,0.00,weatherlink.com 1.10,2013-06-28 15:34:00,
2013-06-28 11:49:00,70.0,64.0,29.41,ENE,64,0.0,7.0,82,0.00,,,0.00,weatherlink.com 1.10,2013-06-28 15:49:00,
2013-06-28 12:04:00,69.1,64.0,29.41,East,98,0.0,5.0,83,0.00,,,0.00,weatherlink.com 1.10,2013-06-28 16:04:00,
2013-06-28 12:19:00,68.2,64.0,29.42,North,10,0.0,4.0,86,0.00,,,0.00,weatherlink.com 1.10,2013-06-28 16:19:00,
2013-06-28 12:35:00,69.0,64.0,29.42,NE,51,2.0,6.0,85,0.00,,,0.00,weatherlink.com 1.10,2013-06-28 16:35:00,
2013-06-28 12:49:00,69.0,64.0,29.41,ESE,112,0.0,4.0,85,0.00,,,0.00,weatherlink.com 1.10,2013-06-28 16:49:00,
2013-06-28 13:04:00,69.0,65.0,29.41,East,93,0.0,4.0,86,0.00,,,0.00,weatherlink.com 1.10,2013-06-28 17:04:00,
2013-06-28 13:19:00,69.3,65.0,29.41,East,89,3.0,7.0,87,0.00,,,0.00,weatherlink.com 1.10,2013-06-28 17:19:00,
2013-06-28 13:34:00,69.9,64.0,29.41,North,355,5.0,11.0,81,0.00,,,0.00,weatherlink.com 1.10,2013-06-28 17:34:00,
2013-06-28 13:49:00,70.7,65.0,29.41,SW,229,4.0,6.0,83,0.00,,,0.00,weatherlink.com 1.10,2013-06-28 17:49:00,
2013-06-28 14:04:00,71.5,64.0,29.40,NE,40,5.0,7.0,78,0.00,,,0.00,weatherlink.com 1.10,2013-06-28 18:04:00,
2013-06-28 14:20:00,72.0,66.0,29.39,NE,36,2.0,5.0,81,0.00,,,0.00,weatherlink.com 1.10,2013-06-28 18:20:00,
2013-06-28 14:35:00,72.5,66.0,29.40,SSE,168,2.0,8.0,80,0.00,,,0.00,weatherlink.com 1.10,2013-06-28 18:35:00,
2013-06-28 14:50:00,74.2,67.0,29.40,East,94,1.0,13.0,78,0.00,,,0.00,weatherlink.com 1.10,2013-06-28 18:50:00,
2013-06-28 15:05:00,74.1,66.0,29.39,NE,34,4.0,9.0,75,0.00,,,0.00,weatherlink.com 1.10,2013-06-28 19:05:00,
2013-06-28 15:20:00,74.3,66.0,29.39,NE,34,3.0,14.0,74,0.00,,,0.00,weatherlink.com 1.10,2013-06-28 19:20:00,
2013-06-28 15:35:00,73.9,65.0,29.39,North,350,4.0,8.0,73,0.00,,,0.00,weatherlink.com 1.10,2013-06-28 19:35:00,
2013-06-28 15:50:00,74.2,65.0,29.38,ENE,69,2.0,10.0,73,0.00,,,0.00,weatherlink.com 1.10,2013-06-28 19:50:00,
2013-06-28 16:05:00,74.6,65.0,29.37,NE,40,3.0,7.0,73,0.00,,,0.00,weatherlink.com 1.10,2013-06-28 20:05:00,
2013-06-28 16:20:00,74.6,64.0,29.37,NNW,339,3.0,11.0,70,0.00,,,0.00,weatherlink.com 1.10,2013-06-28 20:20:00,
2013-06-28 16:36:00,75.7,65.0,29.37,NW,311,5.0,11.0,69,0.00,,,0.00,weatherlink.com 1.10,2013-06-28 20:36:00,
2013-06-28 16:51:00,75.2,66.0,29.37,East,98,0.0,7.0,73,0.00,,,0.00,weatherlink.com 1.10,2013-06-28 20:51:00,
2013-06-28 17:06:00,75.4,65.0,29.38,NE,55,3.0,10.0,70,0.00,,,0.00,weatherlink.com 1.10,2013-06-28 21:06:00,
2013-06-28 17:21:00,75.8,66.0,29.38,NNE,31,0.0,5.0,71,0.00,,,0.00,weatherlink.com 1.10,2013-06-28 21:21:00,
2013-06-28 17:36:00,74.6,65.0,29.38,ESE,103,1.0,5.0,73,0.00,,,0.00,weatherlink.com 1.10,2013-06-28 21:36:00,
2013-06-28 17:51:00,73.6,66.0,29.38,East,82,0.0,6.0,77,0.00,,,0.00,weatherlink.com 1.10,2013-06-28 21:51:00,
2013-06-28 18:06:00,72.6,67.0,29.38,ENE,76,0.0,2.0,82,0.00,,,0.00,weatherlink.com 1.10,2013-06-28 22:06:00,
2013-06-28 18:21:00,71.0,66.0,29.38,NW,320,1.0,6.0,83,0.00,,,0.00,weatherlink.com 1.10,2013-06-28 22:21:00,
2013-06-28 18:36:00,70.3,66.0,29.40,NW,320,0.0,1.0,85,0.00,,,0.00,weatherlink.com 1.10,2013-06-28 22:36:00,
2013-06-28 18:52:00,69.7,65.0,29.40,NNE,25,0.0,2.0,85,0.00,,,0.00,weatherlink.com 1.10,2013-06-28 22:52:00,
2013-06-28 19:06:00,69.4,65.0,29.40,East,88,0.0,2.0,85,0.00,,,0.00,weatherlink.com 1.10,2013-06-28 23:06:00,
2013-06-28 19:21:00,68.9,64.0,29.41,ENE,70,0.0,6.0,84,0.00,,,0.00,weatherlink.com 1.10,2013-06-28 23:21:00,
2013-06-28 19:37:00,66.4,63.0,29.41,NW,306,6.0,13.0,89,0.02,,,0.02,weatherlink.com 1.10,2013-06-28 23:37:00,
2013-06-28 19:52:00,64.5,61.0,29.41,WSW,252,0.0,6.0,89,0.03,,,0.03,weatherlink.com 1.10,2013-06-28 23:52:00,
2013-06-28 20:07:00,63.9,62.0,29.40,West,267,0.0,1.0,93,0.03,,,0.03,weatherlink.com 1.10,2013-06-29 00:07:00,
2013-06-28 20:22:00,63.5,62.0,29.40,NNW,328,0.0,2.0,94,0.03,,,0.03,weatherlink.com 1.10,2013-06-29 00:22:00,
2013-06-28 20:37:00,63.1,61.0,29.42,NNW,328,0.0,2.0,94,0.00,,,0.03,weatherlink.com 1.10,2013-06-29 00:37:00,
2013-06-28 20:52:00,62.5,61.0,29.42,WSW,251,3.0,4.0,94,0.00,,,0.03,weatherlink.com 1.10,2013-06-29 00:52:00,
2013-06-28 21:07:00,62.2,61.0,29.42,NNE,32,0.0,4.0,94,0.00,,,0.03,weatherlink.com 1.10,2013-06-29 01:07:00,
2013-06-28 21:22:00,61.9,60.0,29.43,NNE,32,0.0,1.0,94,0.00,,,0.03,weatherlink.com 1.10,2013-06-29 01:22:00,
2013-06-28 21:37:00,61.5,60.0,29.44,NNE,32,0.0,0.0,94,0.00,,,0.03,weatherlink.com 1.10,2013-06-29 01:37:00,
2013-06-28 21:52:00,61.2,60.0,29.44,NNE,32,0.0,0.0,94,0.00,,,0.03,weatherlink.com 1.10,2013-06-29 01:52:00,
2013-06-28 22:08:00,61.1,60.0,29.44,NE,35,0.0,3.0,95,0.00,,,0.03,weatherlink.com 1.10,2013-06-29 02:08:00,
2013-06-28 22:23:00,60.9,60.0,29.43,NE,35,0.0,1.0,95,0.00,,,0.03,weatherlink.com 1.10,2013-06-29 02:23:00,
2013-06-28 22:38:00,60.5,59.0,29.44,NE,35,0.0,0.0,95,0.00,,,0.03,weatherlink.com 1.10,2013-06-29 02:38:00,
2013-06-28 22:53:00,60.4,59.0,29.43,NE,35,0.0,1.0,95,0.00,,,0.03,weatherlink.com 1.10,2013-06-29 02:53:00,
2013-06-28 23:08:00,60.1,59.0,29.43,NE,35,0.0,0.0,95,0.00,,,0.03,weatherlink.com 1.10,2013-06-29 03:08:00,
2013-06-28 23:23:00,59.7,58.0,29.43,NE,35,0.0,0.0,95,0.00,,,0.03,weatherlink.com 1.10,2013-06-29 03:23:00,
2013-06-28 23:38:00,59.4,58.0,29.43,NE,35,0.0,0.0,95,0.00,,,0.03,weatherlink.com 1.10,2013-06-29 03:38:00,
2013-06-28 23:53:00,58.9,58.0,29.43,NE,35,0.0,0.0,95,0.00,,,0.03,weatherlink.com 1.10,2013-06-29 03:53:00,